FW0177 Weather Reports


time (UTC)temp
C
wind
direction
speed
KPH
gust
KPH
rain 1hr
cm
rain 24hr
cm
rain mn
cm
humidity
%
barometer
mb
20260504120107 8 0 0.0 0.0 0.00 0.00 0.00 93 1017.3
20260504081552 9 0 0.0 0.0 0.00 0.00 0.00 93 1017.5
20260504044557 11 0 0.0 0.0 0.00 0.00 0.00 91 1018.6
20260504043054 11 0 0.0 0.0 0.00 0.00 0.00 91 1018.7
20260504041552 12 0 0.0 0.0 0.00 0.00 0.00 91 1018.8
20260504040056 12 0 0.0 0.0 0.00 0.00 0.00 90 1018.8
20260504034551 12 0 0.0 0.0 0.00 0.00 0.00 90 1019.0
20260504033054 12 0 0.0 0.0 0.00 0.00 0.00 89 1019.2
20260504031554 12 0 0.0 0.0 0.00 0.00 0.00 89 1019.1
20260504030054 13 0 0.0 0.0 0.00 0.00 0.00 87 1019.1
20260504024604 13 0 0.0 0.0 0.00 0.00 0.00 85 1019.1
20260504023053 13 0 0.0 0.0 0.00 0.00 0.00 84 1018.9
20260504021554 14 0 0.0 0.0 0.00 0.00 0.00 81 1018.6
20260504020050 15 0 0.0 0.0 0.00 0.00 0.00 80 1018.4
20260504014558 15 0 0.0 0.0 0.00 0.00 0.00 76 1018.2
20260504013054 16 0 0.0 0.0 0.00 0.00 0.00 71 1018.0
20260504011555 17 0 0.0 0.0 0.00 0.00 0.00 70 1018.0
20260504004558 18 0 0.0 0.0 0.00 0.00 0.00 57 1017.7
20260504003055 19 0 0.0 0.0 0.00 0.00 0.00 53 1017.7
20260504001552 20 0 0.0 0.0 0.00 0.00 0.00 50 1017.6
20260504000130 21 0 0.0 0.0 0.00 0.00 0.00 48 1017.6
20260503234559 22 0 0.0 3.2 0.00 0.00 0.00 45 1017.6
20260503233051 23 0 0.0 1.6 0.00 0.00 0.00 40 1017.6
20260503231555 23 310 0.0 8.0 0.00 0.00 0.00 38 1017.7
20260503230055 23 0 0.0 9.7 0.00 0.00 0.00 38 1017.7
20260503224552 23 0 1.6 8.0 0.00 0.00 0.00 38 1017.7
20260503223054 23 300 0.0 6.4 0.00 0.00 0.00 39 1017.8
20260503221558 23 313 3.2 16.1 0.00 0.00 0.00 39 1018.0
20260503220057 23 0 1.6 6.4 0.00 0.00 0.00 37 1018.0
20260503214550 23 0 1.6 11.3 0.00 0.00 0.00 38 1018.2
20260503213052 23 0 1.6 12.9 0.00 0.00 0.00 40 1018.4
20260503211602 23 290 0.0 11.3 0.00 0.00 0.00 41 1018.5
20260503210052 22 254 1.6 19.3 0.00 0.00 0.00 39 1018.6
20260503204554 23 296 4.8 14.5 0.00 0.00 0.00 37 1018.7
20260503203107 22 304 0.0 9.7 0.00 0.00 0.00 44 1019.1
20260503201554 22 301 1.6 12.9 0.00 0.00 0.00 41 1019.4
20260503200051 22 233 3.2 17.7 0.00 0.00 0.00 40 1019.7
20260503194555 22 0 0.0 16.1 0.00 0.00 0.00 44 1019.8
20260503193053 22 290 0.0 16.1 0.00 0.00 0.00 40 1020.0
20260503191551 22 328 1.6 19.3 0.00 0.00 0.00 38 1020.2
20260503190053 22 253 0.0 12.9 0.00 0.00 0.00 39 1020.5
20260503184553 22 0 1.6 9.7 0.00 0.00 0.00 43 1020.6
20260503183052 21 304 8.0 17.7 0.00 0.00 0.00 41 1020.9
20260503181601 22 0 3.2 17.7 0.00 0.00 0.00 43 1020.8
20260503180052 22 306 4.8 24.1 0.00 0.00 0.00 38 1021.1
20260503174552 22 19 0.0 20.9 0.00 0.00 0.00 40 1021.2
20260503173057 22 0 1.6 11.3 0.00 0.00 0.00 45 1021.3
20260503171549 21 287 0.0 9.7 0.00 0.00 0.00 44 1021.6